This demonstration page uses our WeatherBlox Daily Observations layout. Learn more.

Left ArrowRight Arrow

Hourly Observations for September 1, 2018

Temp ( °F °C ) Dew Point ( °F °C ) Humidity (%) Winds ( mph kmh ) Pressure ( in mb ) Visibility ( mi km ) Precip ( " mm )
12:53 am 00:53 Clear 72 22.2 71 21.7 97 97 Calm 30.14 1021 10 16 0.00 0.00
1:53 am 01:53 Clear 71 21.7 71 21.7 100 100 Calm 30.14 1021 10 16 0.00 0.00
2:53 am 02:53 Clear 71 21.7 71 21.7 100 100 Calm 30.12 1020 10 16 0.00 0.00
3:53 am 03:53 Clear 70 21.1 70 21.1 100 100 Calm 30.11 1020 10 16 0.00 0.00
4:53 am 04:53 Partly Cloudy 70 21.1 70 21.1 100 100 Calm 30.11 1020 10 16 0.00 0.00
5:53 am 05:53 Clear 70 21.1 70 21.1 100 100 Calm 30.11 1020 10 16 0.00 0.00
6:53 am 06:53 Clear 69 20.6 69 20.6 100 100 Calm 30.13 1020 10 16 0.00 0.00
7:53 am 07:53 Sunny 70 21.1 70 21.1 100 100 Calm 30.16 1021 10 16 0.00 0.00
8:53 am 08:53 Partly Cloudy 75 23.9 72 22.2 90 90 Calm 30.17 1022 10 16 0.00 0.00
9:53 am 09:53 Mostly Sunny 81 27.2 73 22.8 77 77 Calm 30.19 1022 10 16 0.00 0.00
10:53 am 10:53 Partly Cloudy 81 27.2 73 22.8 77 77 VRB 3 6 30.19 1023 10 16 0.00 0.00
11:53 am 11:53 Partly Cloudy 84 28.9 73 22.8 70 70 SSE 6 9 30.20 1023 10 16 0.00 0.00
12:53 pm 12:53 Mostly Cloudy 86 30 71 21.7 61 61 SE 10 17 30.19 1022 10 16 0.00 0.00
1:53 pm 13:53 Mostly Cloudy 88 31.1 70 21.1 55 55 ESE 9 15 30.16 1022 10 16 0.00 0.00
2:53 pm 14:53 Mostly Sunny 90 32.2 68 20 48 48 S 7 11 30.13 1020 10 16 0.00 0.00
3:53 pm 15:53 Partly Cloudy 91 32.8 68 20 47 47 SSE 10 17 30.11 1020 10 16 0.00 0.00
4:53 pm 16:53 Mostly Sunny 90 32.2 68 20 48 48 VRB 5 7 30.09 1019 10 16 0.00 0.00
5:53 pm 17:53 Partly Cloudy 89 31.7 68 20 50 50 E 7 11 30.09 1019 10 16 0.00 0.00
6:53 pm 18:53 Sunny 89 31.7 67 19.4 48 48 E 5 7 30.09 1019 10 16 0.00 0.00
7:53 pm 19:53 Sunny 87 30.6 69 20.6 55 55 SE 6 9 30.10 1019 10 16 0.00 0.00
8:53 pm 20:53 Clear 85 29.4 70 21.1 61 61 ESE 5 7 30.11 1020 10 16 0.00 0.00
9:53 pm 21:53 Clear 75 23.9 72 22.2 90 90 Calm 30.12 1020 10 16 0.00 0.00
10:53 pm 22:53 Clear 80 26.7 71 21.7 74 74 Calm 30.14 1021 10 16 0.00 0.00
11:53 pm 23:53 Clear 78 25.6 71 21.7 79 79 SSW 3 6 30.14 1021 10 16 0.00 0.00

Powered by Vaisala Xweather